Location: *
(50.8160°S, 176.0219°W)
Time: 23:28:35
(UTC+00:00)

Cosmos 1943 - Pass Details

Date: 19 May 2026
Orbit: 833 x 847 km, 71.0° (Epoch: 11 June)

Event Time Altitude Azimuth Distance (km) Brightness Sun altitude
Exits shadow 16:01:41 55° 150° (SSE) 1,024 3.7 -30.8°
Drops below altitude 10° 16:06:06 10° 150° (SSE) 2,500 6.0 -30.1°
Sets 16:08:34 0° 150° (SSE) 3,443 6.8 -29.7°
